GPS BIII-4 (PRN 14)

Last updated on Wed Sep 17 2025 00:03:17 GMT+0000 (Coordinated Universal Time)

1 46826U 20078A 25259.28929001 .00000007 00000+0 00000+0 0 9992 2 46826 54.0398 221.8877 0062730 203.5982 326.6587 2.00567036 36015
UTC large
Height (km)
Speed (km/s)
/
Latitude / Longitude
Inclination (degrees)
Orbital Period (minutes)
Azimuth
Elevation
Range (km)
Doppler Factor

Next 0 passes for location: London (51.5072 / 0.1276)

Sorry there are no passes over London.